Location: B
(0.0000°N, 0.0000°E)
Time: 04:44:37
(UTC+02:00)

ISS - All Passes

Search period start: 25 April 2017 00:00
Search period end: 05 May 2017 00:00
Orbit: 400 x 409 km, 51.6° (Epoch: 25 April)

Date Brightness Start Highest point End Pass type
(mag) Time Alt. Az. Time Alt. Az. Time Alt. Az.
25 Apr - 07:40:05 10° SSW 07:43:17 55° SE 07:46:29 10° NE daylight
25 Apr - 19:14:09 10° N 19:17:06 31° NE 19:20:03 10° ESE daylight
26 Apr - 06:48:35 10° S 06:51:04 20° SE 06:53:31 10° ENE visible
26 Apr - 08:25:59 10° WNW 08:27:19 12° NW 08:28:40 10° NNW daylight
26 Apr - 18:23:25 10° NNE 18:24:51 12° NE 18:26:18 10° E daylight
26 Apr - 19:58:43 10° WNW 20:01:07 19° SW 20:03:32 10° S daylight
27 Apr - 07:32:08 10° WSW 07:35:05 30° NW 07:38:00 10° N visible
27 Apr - 19:05:41 10° NW 19:08:52 53° SW 19:12:04 10° SSE daylight
28 Apr - 06:39:33 10° SW 06:42:50 85° SE 06:46:05 10° NE visible
28 Apr - 18:13:29 10° NNW 18:16:37 46° NE 18:19:45 10° SE daylight
29 Apr - 05:47:42 10° S 05:50:34 27° SE 05:53:24 10° ENE visible
29 Apr - 17:22:08 10° N 17:24:21 17° NE 17:26:34 10° E daylight
29 Apr - 18:58:50 10° W 19:00:37 14° SW 19:02:24 10° SSW daylight
30 Apr - 04:57:20 10° SE 04:58:15 11° SE 04:59:11 10° ESE night (unlit)
30 Apr - 06:31:55 10° WSW 06:34:32 22° NW 06:37:08 10° N visible
30 Apr - 18:05:18 10° WNW 18:08:19 36° SW 18:11:21 10° SSE daylight
01 May - 05:39:00 10° SW 05:42:16 64° NW 05:45:29 10° NNE visible
01 May - 17:12:48 10° NNW 17:16:01 70° NE 17:19:16 10° SE daylight
02 May - 04:46:52 10° SSW 04:49:57 39° SE 04:53:02 10° NE night (unlit)
02 May - 16:21:04 10° N 16:23:43 23° NE 16:26:23 10° ESE daylight
03 May - 03:55:38 10° SSE 03:57:38 15° SE 03:59:36 10° E night (unlit)
03 May - 05:31:46 10° W 05:33:53 16° NW 05:36:00 10° NNW night (unlit)
03 May - 17:04:54 10° WNW 17:07:39 25° SW 17:10:25 10° S daylight
04 May - 04:38:25 10° SW 04:41:33 43° NW 04:44:41 10° NNE night (unlit)
04 May - 16:12:05 10° NW 16:15:19 78° SW 16:18:33 10° SSE daylight
